• In Uzbekistan
  • List of Countries
  • For 7 days
  • Water Temperature
  • Satellite Maps
  • Weather Map
  • Weather Widgets
  • user-avatar
    Login

    Hourly Weather Kalgoorlie

    Today, 3 December, Saturday

    Time Temperature Precipitation Wind Pressure Humidity
    00:00 +23°C° 0 mm 7 mps 723 mmHg 41%
    01:00 +22°C° 0 mm 7 mps 723 mmHg 45%
    02:00 +21°C° 0 mm 6 mps 722 mmHg 49%
    03:00 +21°C° 0 mm 6 mps 722 mmHg 51%
    04:00 +20°C° 0 mm 5 mps 722 mmHg 53%
    05:00 +20°C° 0 mm 5 mps 722 mmHg 54%
    06:00 +22°C° 0 mm 5 mps 722 mmHg 48%
    07:00 +26°C° 0 mm 6 mps 722 mmHg 42%
    08:00 +32°C° 0 mm 7 mps 722 mmHg 30%
    09:00 +35°C° 0 mm 7 mps 722 mmHg 24%
    10:00 +38°C° 0 mm 7 mps 721 mmHg 18%
    11:00 +41°C° 0 mm 8 mps 721 mmHg 12%
    12:00 +43°C° 0 mm 8 mps 720 mmHg 11%
    13:00 +43°C° 0 mm 9 mps 720 mmHg 9%
    14:00 +44°C° 0 mm 9 mps 719 mmHg 9%
    15:00 +43°C° 0 mm 9 mps 719 mmHg 9%
    16:00 +42°C° 0 mm 10 mps 720 mmHg 10%
    17:00 +40°C° 0 mm 10 mps 720 mmHg 11%
    18:00 +37°C° 0 mm 10 mps 720 mmHg 12%
    19:00 +33°C° 0 mm 9 mps 721 mmHg 13%
    20:00 +29°C° 0 mm 10 mps 722 mmHg 14%
    21:00 +27°C° 0 mm 9 mps 722 mmHg 19%
    22:00 +26°C° 0 mm 9 mps 723 mmHg 24%
    23:00 +23°C° 0 mm 8 mps 723 mmHg 29%

    Tomorrow, 4 December, Sunday

    Time Temperature Precipitation Wind Pressure Humidity
    00:00 +22°C° 0 mm 7 mps 723 mmHg 36%
    01:00 +21°C° 0 mm 7 mps 724 mmHg 42%
    02:00 +20°C° 0 mm 6 mps 724 mmHg 49%
    03:00 +19°C° 0 mm 5 mps 724 mmHg 54%
    04:00 +18°C° 0 mm 4 mps 725 mmHg 60%
    05:00 +17°C° 0 mm 3 mps 725 mmHg 65%
    06:00 +18°C° 0 mm 3 mps 726 mmHg 63%
    07:00 +19°C° 0 mm 4 mps 726 mmHg 61%
    08:00 +20°C° 0 mm 4 mps 727 mmHg 59%
    09:00 +21°C° 0 mm 3 mps 727 mmHg 54%
    10:00 +22°C° 0 mm 3 mps 727 mmHg 49%
    11:00 +24°C° 0 mm 2 mps 727 mmHg 45%
    12:00 +25°C° 0 mm 2 mps 726 mmHg 39%
    13:00 +27°C° 0 mm 2 mps 726 mmHg 34%
    14:00 +28°C° 0 mm 2 mps 726 mmHg 28%
    15:00 +28°C° 0 mm 2 mps 725 mmHg 27%
    16:00 +29°C° 0 mm 3 mps 725 mmHg 26%
    17:00 +29°C° 0 mm 3 mps 725 mmHg 24%
    18:00 +28°C° 0 mm 3 mps 725 mmHg 27%
    19:00 +26°C° 0 mm 4 mps 725 mmHg 29%
    20:00 +25°C° 0 mm 4 mps 726 mmHg 32%
    21:00 +23°C° 0 mm 5 mps 726 mmHg 33%
    22:00 +22°C° 0 mm 6 mps 726 mmHg 35%
    23:00 +21°C° 0 mm 8 mps 726 mmHg 37%

    Day after tomorrow, 5 December, Monday

    Time Temperature Precipitation Wind Pressure Humidity
    00:00 +20°C° 0 mm 8 mps 726 mmHg 44%
    01:00 +17°C° 0 mm 9 mps 726 mmHg 51%
    02:00 +16°C° 0 mm 9 mps 725 mmHg 58%
    03:00 +16°C° 0 mm 8 mps 726 mmHg 60%
    04:00 +15°C° 0 mm 8 mps 726 mmHg 61%
    05:00 +15°C° 0 mm 7 mps 726 mmHg 63%
    06:00 +16°C° 0 mm 7 mps 726 mmHg 57%
    07:00 +18°C° 0 mm 7 mps 726 mmHg 51%
    08:00 +20°C° 0 mm 7 mps 726 mmHg 45%
    09:00 +23°C° 0 mm 7 mps 726 mmHg 40%
    10:00 +27°C° 0 mm 6 mps 726 mmHg 35%
    11:00 +29°C° 0 mm 5 mps 725 mmHg 30%
    12:00 +30°C° 0 mm 4 mps 725 mmHg 27%
    13:00 +32°C° 0 mm 2 mps 724 mmHg 24%
    14:00 +33°C° 0 mm 1 mps 723 mmHg 21%
    15:00 +32°C° 0 mm 2 mps 723 mmHg 21%
    16:00 +33°C° 0 mm 3 mps 723 mmHg 21%
    17:00 +33°C° 0 mm 5 mps 723 mmHg 22%
    18:00 +30°C° 0.1 mm 5 mps 724 mmHg 27%
    19:00 +28°C° 0.1 mm 5 mps 724 mmHg 32%
    20:00 +26°C° 0.1 mm 6 mps 725 mmHg 37%
    21:00 +25°C° 0 mm 5 mps 726 mmHg 43%
    22:00 +23°C° 0 mm 5 mps 726 mmHg 49%
    23:00 +22°C° 0 mm 4 mps 727 mmHg 55%

    6 December, Tuesday

    Time Temperature Precipitation Wind Pressure Humidity
    00:00 +21°C° 0 mm 4 mps 727 mmHg 60%
    01:00 +20°C° 0 mm 4 mps 727 mmHg 64%
    02:00 +20°C° 0 mm 3 mps 727 mmHg 68%
    03:00 +19°C° 0 mm 3 mps 727 mmHg 71%
    04:00 +18°C° 0 mm 3 mps 727 mmHg 74%
    05:00 +18°C° 0 mm 3 mps 728 mmHg 77%
    06:00 +19°C° 0 mm 3 mps 728 mmHg 71%
    07:00 +21°C° 0 mm 3 mps 729 mmHg 65%
    08:00 +22°C° 0 mm 3 mps 729 mmHg 60%
    09:00 +25°C° 0 mm 3 mps 729 mmHg 52%
    10:00 +27°C° 0 mm 2 mps 729 mmHg 44%
    11:00 +29°C° 0 mm 2 mps 729 mmHg 36%
    12:00 +30°C° 0 mm 2 mps 728 mmHg 32%
    13:00 +31°C° 0 mm 1 mps 727 mmHg 27%
    14:00 +33°C° 0 mm 1 mps 727 mmHg 22%
    15:00 +33°C° 0 mm 1 mps 727 mmHg 22%
    16:00 +33°C° 0 mm 1 mps 726 mmHg 21%
    17:00 +33°C° 0 mm 1 mps 726 mmHg 20%
    18:00 +31°C° 0 mm 2 mps 726 mmHg 23%
    19:00 +30°C° 0 mm 3 mps 727 mmHg 25%
    20:00 +28°C° 0 mm 4 mps 727 mmHg 28%
    21:00 +27°C° 0 mm 4 mps 727 mmHg 32%
    22:00 +26°C° 0 mm 5 mps 727 mmHg 35%
    23:00 +26°C° 0 mm 5 mps 727 mmHg 39%

    7 December, Wednesday

    Time Temperature Precipitation Wind Pressure Humidity
    00:00 +25°C° 0 mm 5 mps 726 mmHg 46%
    01:00 +23°C° 0 mm 5 mps 726 mmHg 53%
    02:00 +22°C° 0 mm 5 mps 726 mmHg 59%
    03:00 +21°C° 0 mm 4 mps 726 mmHg 62%
    04:00 +20°C° 0 mm 3 mps 726 mmHg 66%
    05:00 +20°C° 0 mm 2 mps 726 mmHg 69%
    06:00 +23°C° 0 mm 2 mps 727 mmHg 60%
    07:00 +25°C° 0 mm 2 mps 727 mmHg 51%
    08:00 +28°C° 0 mm 2 mps 728 mmHg 43%
    09:00 +30°C° 0 mm 3 mps 728 mmHg 35%
    10:00 +33°C° 0 mm 4 mps 728 mmHg 28%
    11:00 +35°C° 0 mm 4 mps 727 mmHg 21%
    12:00 +36°C° 0 mm 5 mps 727 mmHg 19%
    13:00 +38°C° 0 mm 6 mps 727 mmHg 16%
    14:00 +38°C° 0 mm 7 mps 726 mmHg 14%
    15:00 +38°C° 0 mm 7 mps 726 mmHg 15%
    16:00 +36°C° 0 mm 7 mps 726 mmHg 16%
    17:00 +35°C° 0 mm 8 mps 727 mmHg 17%
    18:00 +32°C° 0 mm 9 mps 727 mmHg 25%
    19:00 +28°C° 0 mm 10 mps 728 mmHg 33%
    20:00 +24°C° 0 mm 11 mps 729 mmHg 42%
    21:00 +22°C° 0 mm 10 mps 730 mmHg 47%
    22:00 +19°C° 0 mm 9 mps 730 mmHg 53%
    23:00 +17°C° 0 mm 9 mps 731 mmHg 59%

    8 December, Thursday

    Time Temperature Precipitation Wind Pressure Humidity
    00:00 +16°C° 0 mm 8 mps 731 mmHg 59%
    01:00 +15°C° 0 mm 7 mps 731 mmHg 59%
    02:00 +14°C° 0 mm 7 mps 731 mmHg 59%
    03:00 +14°C° 0 mm 6 mps 731 mmHg 60%
    04:00 +13°C° 0 mm 6 mps 732 mmHg 61%
    05:00 +13°C° 0 mm 6 mps 732 mmHg 63%
    06:00 +14°C° 0 mm 6 mps 732 mmHg 57%
    07:00 +16°C° 0 mm 6 mps 733 mmHg 51%
    08:00 +17°C° 0 mm 6 mps 733 mmHg 46%
    09:00 +20°C° 0 mm 6 mps 733 mmHg 39%
    10:00 +23°C° 0 mm 6 mps 733 mmHg 32%
    11:00 +26°C° 0 mm 5 mps 732 mmHg 25%
    12:00 +27°C° 0 mm 5 mps 732 mmHg 23%
    13:00 +29°C° 0 mm 5 mps 731 mmHg 20%
    14:00 +30°C° 0 mm 4 mps 731 mmHg 18%
    15:00 +30°C° 0 mm 5 mps 731 mmHg 17%
    16:00 +30°C° 0 mm 5 mps 731 mmHg 17%
    17:00 +30°C° 0 mm 5 mps 731 mmHg 17%
    18:00 +29°C° 0 mm 5 mps 731 mmHg 19%
    19:00 +27°C° 0 mm 5 mps 731 mmHg 21%
    20:00 +25°C° 0 mm 5 mps 732 mmHg 23%
    21:00 +23°C° 0 mm 5 mps 732 mmHg 25%
    22:00 +22°C° 0 mm 6 mps 732 mmHg 27%
    23:00 +21°C° 0 mm 6 mps 732 mmHg 29%
    Show more